Lionhead Wind

Located on Lionhead Ridge near West Yellowstone. Use the nearest SNOTEL station for snow depth data: Madison Plateau. The data on this page is also available to view at dataGarrison.com.

Elevation
8775ft
Jump to table bottom
Date Time Temperature
deg F
RH, % Wind Speed Wind Gust Wind Direction
12/01/21 19:08 29.7 100 13 25 W - 282
12/01/21 18:08 27.0 100 17 24 W - 251
12/01/21 17:08 26.6 100 14 24 W - 271
12/01/21 16:08 28.1 100 8 28 NW - 296
12/01/21 15:08 25.4 100 19 31 SW - 244
12/01/21 14:08 24.9 99 20 28 SW - 240
12/01/21 13:08 23.8 99 23 29 SW - 247
12/01/21 12:08 24.4 99 22 30 W - 253
12/01/21 11:08 23.6 99 21 26 SW - 247
12/01/21 10:08 22.2 99 20 30 SW - 246
12/01/21 09:08 21.6 99 23 32 W - 248
12/01/21 08:08 21.2 99 23 31 W - 251
12/01/21 07:08 21.2 99 18 24 W - 253
12/01/21 06:08 21.6 99 14 19 W - 254
12/01/21 05:08 21.8 99 19 27 W - 253
12/01/21 04:08 21.7 99 20 27 W - 251
12/01/21 03:08 22.1 99 24 31 W - 253
12/01/21 02:08 21.7 99 17 29 SW - 243
12/01/21 01:08 22.1 99 17 24 SW - 237
12/01/21 00:08 21.3 99 18 25 W - 256
11/30/21 23:08 21.0 98 17 24 SW - 243
11/30/21 22:08 21.2 99 7 17 S - 202
11/30/21 21:08 22.0 99 13 24 SW - 244
11/30/21 20:08 20.7 98 21 30 SW - 241
11/30/21 19:08 20.4 98 17 26 SW - 241
11/30/21 18:08 20.2 98 15 25 SW - 233
11/30/21 17:08 20.2 98 17 29 SW - 239
11/30/21 16:08 20.3 98 14 24 SW - 230
11/30/21 15:08 20.9 98 15 24 SW - 236
11/30/21 14:08 21.8 98 18 31 SW - 241
11/30/21 13:08 22.2 98 28 38 W - 250
11/30/21 12:08 22.2 98 22 31 W - 264
11/30/21 11:08 22.9 98 13 31 W - 285
11/30/21 10:08 21.7 98 13 33 W - 281
11/30/21 09:08 21.0 98 15 34 W - 274
11/30/21 08:08 19.8 97 14 28 W - 271
11/30/21 07:08 18.1 98 18 31 W - 251
11/30/21 06:08 20.4 98 24 32 SW - 247
11/30/21 05:08 20.3 96 16 24 SW - 247
11/30/21 04:08 21.1 88 10 15 SW - 241
11/30/21 03:08 24.2 93 3 14 W - 281
11/30/21 02:08 21.9 96 5 15 W - 268
11/30/21 01:08 23.5 98 8 17 W - 271
11/30/21 00:08 22.2 98 5 14 W - 275
11/29/21 23:08 21.1 98 3 17 NE - 46
11/29/21 22:08 22.5 98 4 18 NW - 324
11/29/21 21:08 22.4 98 3 20 NW - 326
11/29/21 20:08 23.7 98 10 37 W - 292
11/29/21 19:08 25.3 99 8 34 W - 285
11/29/21 18:08 26.2 97 8 29 NW - 302